TimeCDT,TemperatureF,Dew PointF,Humidity,Sea Level PressureIn,VisibilityMPH,Wind Direction,Wind SpeedMPH,Gust SpeedMPH,PrecipitationIn,Events,Conditions,WindDirDegrees,DateUTC
12:53 AM,60.1,57.0,90,30.02,10.0,Calm,Calm,-,N/A,,Clear,0,2014-03-23 05:53:00
1:53 AM,59.0,57.0,93,30.02,9.0,Calm,Calm,-,N/A,,Clear,0,2014-03-23 06:53:00
2:53 AM,54.0,54.0,100,30.00,7.0,South,5.8,-,N/A,,Clear,190,2014-03-23 07:53:00
3:53 AM,57.0,57.0,100,29.98,6.0,SSW,4.6,-,N/A,,Clear,200,2014-03-23 08:53:00
4:05 AM,57.0,57.0,100,29.98,3.0,SSW,3.5,-,N/A,,Scattered Clouds,200,2014-03-23 09:05:00
4:08 AM,55.9,55.9,100,29.99,1.5,SSW,3.5,-,N/A,,Mostly Cloudy,210,2014-03-23 09:08:00
4:17 AM,55.0,55.0,100,29.99,0.8,SSW,4.6,-,N/A,,Mostly Cloudy,200,2014-03-23 09:17:00
4:26 AM,55.9,55.9,100,29.99,1.0,WSW,4.6,-,N/A,,Overcast,240,2014-03-23 09:26:00
4:34 AM,57.0,57.0,100,29.99,0.5,WSW,6.9,-,N/A,Fog,Fog,240,2014-03-23 09:34:00
4:53 AM,57.9,57.9,100,29.99,0.2,WSW,3.5,-,N/A,Fog,Fog,240,2014-03-23 09:53:00
5:53 AM,60.1,60.1,100,29.99,0.5,SSW,3.5,-,N/A,Fog,Fog,210,2014-03-23 10:53:00
6:09 AM,60.1,60.1,100,30.00,1.2,SW,5.8,-,N/A,,Overcast,230,2014-03-23 11:09:00
6:17 AM,60.1,60.1,100,30.00,3.0,WSW,3.5,-,N/A,,Overcast,240,2014-03-23 11:17:00
6:53 AM,60.1,60.1,100,30.00,2.5,Calm,Calm,-,N/A,,Overcast,0,2014-03-23 11:53:00
7:06 AM,60.1,60.1,100,30.01,1.2,NW,3.5,-,N/A,,Overcast,320,2014-03-23 12:06:00
7:22 AM,60.1,60.1,100,30.01,0.5,West,3.5,-,N/A,Fog,Fog,260,2014-03-23 12:22:00
7:39 AM,60.1,60.1,100,30.01,2.0,West,4.6,-,N/A,,Overcast,260,2014-03-23 12:39:00
7:53 AM,61.0,61.0,100,30.02,3.0,West,5.8,-,N/A,,Overcast,270,2014-03-23 12:53:00
8:53 AM,62.1,62.1,100,30.02,9.0,SSW,3.5,-,N/A,,Partly Cloudy,210,2014-03-23 13:53:00
9:53 AM,66.0,63.0,90,30.03,10.0,SW,4.6,-,N/A,,Partly Cloudy,230,2014-03-23 14:53:00
10:35 AM,69.1,64.0,84,30.06,10.0,WNW,11.5,-,N/A,,Mostly Cloudy,300,2014-03-23 15:35:00
10:53 AM,70.0,63.0,78,30.06,10.0,NW,11.5,-,N/A,,Mostly Cloudy,320,2014-03-23 15:53:00
11:15 AM,68.0,62.1,81,30.07,10.0,NW,12.7,-,N/A,,Overcast,310,2014-03-23 16:15:00
11:53 AM,64.9,62.1,90,30.08,2.0,NNW,9.2,19.6,0.06,Rain,Heavy Rain,330,2014-03-23 16:53:00
12:01 PM,64.0,63.0,96,30.07,4.0,NNW,6.9,-,0.00,Rain,Light Rain,330,2014-03-23 17:01:00
12:53 PM,66.9,63.0,87,30.03,10.0,North,5.8,-,0.01,,Partly Cloudy,350,2014-03-23 17:53:00
1:53 PM,70.0,61.0,73,30.01,10.0,NNW,4.6,-,N/A,,Overcast,330,2014-03-23 18:53:00
2:11 PM,71.1,60.1,68,30.01,10.0,NNW,5.8,-,N/A,,Overcast,330,2014-03-23 19:11:00
2:25 PM,69.1,61.0,75,30.00,10.0,West,8.1,-,N/A,,Overcast,280,2014-03-23 19:25:00
2:45 PM,71.1,60.1,68,29.98,10.0,WNW,5.8,-,N/A,,Overcast,290,2014-03-23 19:45:00
2:53 PM,72.0,60.1,66,29.98,10.0,West,9.2,-,N/A,,Mostly Cloudy,260,2014-03-23 19:53:00
3:53 PM,72.0,59.0,64,29.97,10.0,NW,8.1,-,N/A,,Scattered Clouds,320,2014-03-23 20:53:00
4:53 PM,73.9,57.9,57,29.96,10.0,NNW,10.4,-,N/A,,Scattered Clouds,330,2014-03-23 21:53:00
5:53 PM,72.0,59.0,64,29.98,10.0,WNW,5.8,-,N/A,,Scattered Clouds,300,2014-03-23 22:53:00
6:53 PM,69.1,57.0,65,30.01,10.0,NNW,17.3,24.2,N/A,,Scattered Clouds,340,2014-03-23 23:53:00
7:53 PM,64.0,55.9,75,30.05,10.0,NNW,11.5,-,N/A,,Clear,340,2014-03-24 00:53:00
8:53 PM,63.0,55.0,75,30.09,10.0,NNW,9.2,-,N/A,,Partly Cloudy,340,2014-03-24 01:53:00
9:53 PM,62.1,53.1,72,30.11,10.0,NNW,10.4,-,N/A,,Clear,330,2014-03-24 02:53:00
10:53 PM,59.0,50.0,72,30.12,10.0,North,16.1,-,N/A,,Clear,360,2014-03-24 03:53:00
11:53 PM,57.0,46.9,69,30.11,10.0,North,10.4,-,N/A,,Clear,360,2014-03-24 04:53:00